Grand Canyon, AZ

6:24 AM MST on December 14, 2017 (GMT -0700)
Grand Canyon National Park

Weather History for KGCN - May, 2014

Change the Weather History Date:

Sunday, May 25, 2014

  Actual Average Record
Temperature  
Mean Temperature 52 °F -  
Max Temperature 73 °F 74 °F 84 °F (1984)
Min Temperature 30 °F 32 °F 17 °F (1980)
Degree Days  
Heating Degree Days 14    
Growing Degree Days 2 (Base 50)    
Moisture  
Dew Point 31 °F    
Average Humidity 51    
Maximum Humidity 96    
Minimum Humidity 22    
Precipitation  
Precipitation 0.00 in - - ()
Sea Level Pressure  
Sea Level Pressure 29.95 in    
Wind  
Wind Speed 2 mph (NNW)    
Max Wind Speed 9 mph    
Max Gust Speed 18 mph    
Visibility 10 miles    
Events      
Averages and records for this station are not official NWS values.
T = Trace of Precipitation, MM = Missing Value Source: NWS Daily Summary

Daily Weather History Graph

Daily Weather History Graph

Search for Another Location

Airport or City:

Trip Planner

Search our weather history database for the weather conditions in past years. The results will help you decide how hot, cold, wet, or windy it might be!

Date:

Astronomy

May. 25, 2014 Rise Set
Actual Time 5:16 AM MST 7:35 PM MST
Civil Twilight 4:47 AM MST 8:04 PM MST
Nautical Twilight 4:11 AM MST 8:40 PM MST
Astronomical Twilight 3:32 AM MST 9:19 PM MST
Moon 3:16 AM MST (5/25) 4:45 PM MST (5/25)
Length of Visible Light 15h 17m
Length of Day
14h 18m
Waning Crescent, 10% of the Moon is Illuminated
May 25
Waning Crescent
May 28
New
Jun 5
First Quarter
Jun 12
Full
Jun 19
Last Quarter

Hourly Weather History & Observations

Time (MST) Temp. Windchill Dew Point Humidity Pressure Visibility Wind Dir Wind Speed Gust Speed Precip Events Conditions
12:54 AM 37.0 °F - 34.0 °F 89% 29.98 in 10.0 mi Calm Calm - N/A   Clear
1:54 AM 35.1 °F - 30.9 °F 85% 29.96 in 10.0 mi Calm Calm - N/A   Clear
2:54 AM 30.9 °F 27.5 °F 30.0 °F 96% 29.97 in 10.0 mi NE 3.5 mph - N/A   Clear
3:54 AM 32.0 °F - 28.9 °F 88% 29.96 in 10.0 mi Calm Calm - N/A   Clear
4:54 AM 30.0 °F - 28.0 °F 92% 29.99 in 10.0 mi Calm Calm - N/A   Clear
5:54 AM 30.0 °F - 28.0 °F 92% 30.02 in 10.0 mi Calm Calm - N/A   Clear
6:54 AM 37.0 °F - 32.0 °F 82% 30.01 in 10.0 mi Calm Calm - N/A   Clear
8:54 AM 55.9 °F - 35.1 °F 45% 29.96 in 10.0 mi NNW 4.6 mph - N/A   Clear
9:54 AM 60.1 °F - 35.1 °F 39% 29.94 in 10.0 mi WNW 8.1 mph - N/A   Clear
10:54 AM 64.9 °F - 34.0 °F 32% 29.93 in 10.0 mi WSW 9.2 mph - N/A   Partly Cloudy
11:54 AM 66.0 °F - 33.1 °F 29% 29.94 in 10.0 mi Variable 4.6 mph - N/A   Scattered Clouds
12:54 PM 66.9 °F - 32.0 °F 27% 29.95 in 10.0 mi North - - N/A   Mostly Cloudy
1:54 PM 68.0 °F - 32.0 °F 26% 29.94 in 10.0 mi North 5.8 mph - N/A   Mostly Cloudy
2:54 PM 70.0 °F - 32.0 °F 25% 29.94 in 10.0 mi SSW 5.8 mph - N/A   Mostly Cloudy
3:54 PM 73.0 °F - 32.0 °F 22% 29.91 in 10.0 mi Variable 6.9 mph 18.4 mph N/A   Mostly Cloudy
4:54 PM 72.0 °F - 32.0 °F 23% 29.92 in 10.0 mi Variable 4.6 mph - N/A   Partly Cloudy
5:54 PM 70.0 °F - 33.1 °F 26% 29.93 in 10.0 mi NNE 3.5 mph - N/A   Scattered Clouds
6:54 PM 69.1 °F - 33.1 °F 26% 29.92 in 10.0 mi Calm Calm - N/A   Clear
7:54 PM 64.0 °F - 33.1 °F 31% 29.92 in 10.0 mi Variable 3.5 mph - N/A   Mostly Cloudy
8:54 PM 48.9 °F - 28.0 °F 44% 29.96 in 10.0 mi NE 3.5 mph - N/A   Clear
9:54 PM 46.9 °F - 28.0 °F 48% 29.97 in 10.0 mi Calm Calm - N/A   Partly Cloudy
10:54 PM 45.0 °F 43.5 °F 30.0 °F 56% 29.96 in 10.0 mi NNW 3.5 mph - N/A   Clear
11:54 PM 44.1 °F - 30.0 °F 58% 29.96 in 10.0 mi Calm Calm - N/A   Clear